Date String (YYYY-MM-DD hh:mm:ss) UTC,Instrument flags,Ambient pressure (hPa),Sample flow (lpm),Bypass flow (lpm),Sample temperature (°C),Ambient temperature (°C),ASC tube jacket temperature (°C),LED temperature (°C),Box temperature (°C),Sample RH (%),Span deviation,Mass concentration (μg/m³),Mass concentration (μg/m³),Mass concentration (μg/m³)
DateTimeUTC,F1_M11,P_M11,Q1_M11,Q2_M11,T1_M11,T2_M11,T3_M11,T4_M11,T5_M11,U1_M11,ZSPAN_M11,X0_M11,X2_M11,X1_M11
2022-09-28 21:00:00,,0831.6,4.99,0.00,29.8,27.5,00.0,38.5,31.6,23.4,0000.0,0016.36,0005.86,0004.45
2022-09-28 21:01:00,,0831.6,5.01,0.00,29.8,27.9,00.0,38.5,31.7,22.9,0000.0,0015.86,0005.82,0004.45
2022-09-28 21:02:00,,0831.6,4.99,0.00,29.9,28.2,00.0,38.5,31.8,22.9,0000.0,0015.96,0005.80,0004.46
2022-09-28 21:03:00,,0831.6,5.01,0.00,29.9,28.4,00.0,38.5,31.8,22.6,0000.0,0016.08,0005.82,0004.49
2022-09-28 21:04:00,,0831.6,4.99,0.00,29.9,28.7,00.0,38.5,31.9,22.7,0000.0,0016.50,0005.86,0004.51
2022-09-28 21:05:00,,0831.6,5.01,0.00,30.0,28.1,00.0,38.5,31.9,22.4,0000.0,0017.16,0005.94,0004.53
2022-09-28 21:06:00,,0831.5,5.00,0.00,29.9,27.0,00.0,38.5,31.8,22.4,0000.0,0016.61,0005.94,0004.54
2022-09-28 21:07:00,,0831.5,5.01,0.00,29.9,26.7,00.0,38.5,31.7,22.6,0000.0,0015.44,0005.89,0004.56
2022-09-28 21:08:00,,0831.5,5.00,0.00,29.8,26.9,00.0,38.4,31.6,22.5,0000.0,0016.00,0005.92,0004.58
2022-09-28 21:09:00,,0831.5,5.00,0.00,29.8,27.2,00.0,38.4,31.5,22.8,0000.0,0019.51,0006.00,0004.61
2022-09-28 21:10:00,,0831.5,4.99,0.00,29.8,27.6,00.0,38.4,31.5,22.2,0000.0,0019.72,0005.96,0004.62
2022-09-28 21:11:00,,0831.6,5.01,0.00,29.8,27.9,00.0,38.4,31.6,22.4,0000.0,0020.03,0006.04,0004.64
2022-09-28 21:12:00,,0831.5,5.00,0.00,29.8,28.2,00.0,38.4,31.7,22.7,0000.0,0020.01,0006.09,0004.64
2022-09-28 21:13:00,,0831.5,5.00,0.00,29.8,28.4,00.0,38.4,31.8,22.9,0000.4,0019.82,0006.14,0004.65
2022-09-28 21:14:00,,0831.5,4.99,0.00,29.9,28.7,00.0,38.4,31.9,22.3,0000.0,0020.10,0006.10,0004.65
2022-09-28 21:15:00,,0831.5,5.01,0.00,29.9,28.3,00.0,38.5,31.9,22.0,0000.0,0020.77,0006.08,0004.67
2022-09-28 21:16:00,,0831.5,5.01,0.00,29.9,27.1,00.0,38.4,31.7,21.7,0000.0,0020.88,0006.07,0004.68
2022-09-28 21:17:00,,0831.5,5.00,0.00,29.8,26.6,00.0,38.4,31.6,21.9,0001.8,0020.65,0006.06,0004.70
2022-09-28 21:18:00,,0831.5,5.00,0.00,29.8,26.8,00.0,38.4,31.6,22.2,0001.9,0020.30,0006.09,0004.71
2022-09-28 21:19:00,,0831.4,5.00,0.00,29.7,27.1,00.0,38.3,31.5,22.2,0001.7,0020.15,0006.12,0004.73
2022-09-28 21:20:00,,0831.4,4.99,0.00,29.7,27.4,00.0,38.3,31.5,22.0,0001.9,0017.14,0006.13,0004.74
2022-09-28 21:21:00,,0831.4,5.00,0.00,29.7,27.8,00.0,38.3,31.6,21.6,0001.7,0016.80,0006.19,0004.76
2022-09-28 21:22:00,,0831.4,5.01,0.00,29.8,28.1,00.0,38.3,31.7,21.9,0002.0,0018.75,0006.27,0004.78
2022-09-28 21:23:00,,0831.5,4.99,0.00,29.8,28.3,00.0,38.4,31.7,21.6,0000.6,0019.97,0006.30,0004.81
2022-09-28 21:24:00,,0831.5,5.01,0.00,29.8,28.6,00.0,38.4,31.8,21.6,0000.2,0021.01,0006.34,0004.83
2022-09-28 21:25:00,,0831.4,5.00,0.00,29.9,28.8,00.0,38.4,31.9,21.6,0001.4,0020.93,0006.39,0004.84
2022-09-28 21:26:00,,0831.4,4.99,0.00,29.9,28.6,00.0,38.4,31.9,21.7,0000.5,0020.49,0006.42,0004.83
2022-09-28 21:27:00,,0831.5,5.01,0.00,29.9,27.4,00.0,38.4,31.8,21.2,0000.7,0020.49,0006.45,0004.84
2022-09-28 21:28:00,,0831.5,5.00,0.00,29.9,26.6,00.0,38.4,31.7,21.1,0000.4,0020.94,0006.54,0004.87
2022-09-28 21:29:00,,0831.5,5.00,0.00,29.8,26.7,00.0,38.4,31.7,21.2,0000.1,0021.68,0006.59,0004.90
2022-09-28 21:30:00,,0831.4,5.00,0.00,29.8,27.1,00.0,38.3,31.5,21.1,0000.3,0022.17,0006.63,0004.92
2022-09-28 21:31:00,,0831.4,4.99,0.00,29.7,27.4,00.0,38.3,31.5,21.0,0000.2,0022.80,0006.62,0004.93
2022-09-28 21:32:00,,0831.4,4.99,0.00,29.7,27.7,00.0,38.3,31.6,21.1,0001.0,0023.70,0006.65,0004.94
2022-09-28 21:33:00,,0831.5,5.00,0.00,29.8,28.0,00.0,38.3,31.7,19.9,0000.9,0023.07,0006.64,0004.93
2022-09-28 21:34:00,,0831.5,4.99,0.00,29.8,28.3,00.0,38.4,31.8,19.4,0000.6,0022.51,0006.58,0004.90
2022-09-28 21:35:00,,0831.4,5.01,0.00,29.8,28.5,00.0,38.4,31.8,18.7,0000.9,0022.28,0006.53,0004.88
2022-09-28 21:36:00,,0831.4,5.00,0.00,29.9,28.7,00.0,38.4,31.9,19.2,0001.3,0021.90,0006.53,0004.87
2022-09-28 21:37:00,,0831.4,5.01,0.00,29.9,28.2,00.0,38.4,31.9,19.3,0001.7,0021.71,0006.52,0004.89
2022-09-28 21:38:00,,0831.4,5.01,0.00,29.9,26.9,00.0,38.4,31.8,19.5,0001.8,0022.08,0006.56,0004.90
2022-09-28 21:39:00,,0831.5,5.01,0.00,29.8,26.7,00.0,38.4,31.7,19.8,0002.4,0023.06,0006.51,0004.90
2022-09-28 21:40:00,,0831.4,5.00,0.00,29.8,27.0,00.0,38.4,31.6,19.8,0002.5,0022.56,0006.46,0004.87
2022-09-28 21:41:00,,0831.4,4.99,0.00,29.8,27.3,00.0,38.3,31.5,20.1,0002.3,0021.72,0006.37,0004.84
2022-09-28 21:42:00,,0831.4,5.01,0.00,29.7,27.6,00.0,38.3,31.5,20.2,0002.2,0021.44,0006.34,0004.82
2022-09-28 21:43:00,,0831.4,5.01,0.00,29.8,27.9,00.0,38.3,31.6,20.1,0001.8,0020.92,0006.30,0004.81
2022-09-28 21:44:00,,0831.4,4.99,0.00,29.8,28.2,00.0,38.4,31.7,20.3,0001.9,0019.96,0006.29,0004.81
2022-09-28 21:45:00,,0831.5,5.01,0.00,29.8,28.4,00.0,38.4,31.7,20.3,0002.2,0019.34,0006.35,0004.82
2022-09-28 21:46:00,,0831.5,4.99,0.00,29.9,28.6,00.0,38.4,31.8,20.5,0002.4,0019.56,0006.40,0004.83
2022-09-28 21:47:00,,0831.4,5.00,0.00,29.9,28.3,00.0,38.4,31.8,20.4,0002.6,0019.88,0006.39,0004.82
2022-09-28 21:48:00,,0831.4,5.01,0.00,29.9,27.0,00.0,38.4,31.7,20.1,0002.4,0019.79,0006.40,0004.80
2022-09-28 21:49:00,,0831.4,5.00,0.00,29.8,26.5,00.0,38.4,31.6,19.8,0002.6,0019.78,0006.30,0004.75
2022-09-28 21:50:00,,0831.3,4.99,0.00,29.7,26.7,00.0,38.3,31.5,19.8,0002.8,0018.55,0006.24,0004.70
2022-09-28 21:51:00,,0831.4,4.98,0.00,29.7,27.0,00.0,38.3,31.4,19.2,0002.8,0018.54,0006.16,0004.64
2022-09-28 21:52:00,,0831.3,5.01,0.00,29.7,27.3,00.0,38.3,31.4,18.8,0003.3,0018.83,0006.12,0004.58
2022-09-28 21:53:00,,0831.3,5.00,0.00,29.7,27.7,00.0,38.3,31.5,18.6,0003.9,0018.12,0006.08,0004.52
2022-09-28 21:54:00,,0831.3,4.98,0.00,29.7,28.0,00.0,38.3,31.6,18.7,0003.5,0017.35,0006.04,0004.47
2022-09-28 21:55:00,,0831.4,5.01,0.00,29.7,28.2,00.0,38.3,31.7,18.8,0003.3,0017.73,0006.01,0004.43
2022-09-28 21:56:00,,0831.3,4.99,0.00,29.7,28.4,00.0,38.3,31.7,19.0,0002.7,0018.12,0005.92,0004.38
2022-09-28 21:57:00,,0831.2,5.01,0.00,29.8,28.6,00.0,38.4,31.8,19.0,0001.4,0018.20,0005.89,0004.34
2022-09-28 21:58:00,,0831.2,4.99,0.00,29.8,28.4,00.0,38.4,31.8,18.2,0001.0,0017.76,0005.80,0004.29
2022-09-28 21:59:00,,0831.2,5.00,0.00,29.8,27.2,00.0,38.4,31.7,18.0,0000.3,0018.35,0005.70,0004.24
